Greenville, AL

11:13 PM CST on February 06, 2016 (GMT -0600)
Greenville Municipal

Weather History for KPRN - January, 2013

Change the Weather History Date:

Monday, January 21, 2013

  Actual Average (KTOI) Record (KTOI)
Temperature  
Mean Temperature 49 °F 47 °F  
Max Temperature 64 °F 58 °F - ()
Min Temperature 34 °F 35 °F - ()
Degree Days  
Heating Degree Days 16 18  
Month to date heating degree days 398  
Since 1 July heating degree days 1315  
Moisture  
Dew Point 36 °F    
Average Humidity 62    
Maximum Humidity 89    
Minimum Humidity 37    
Precipitation  
Precipitation 0.00 in 0.14 in - ()
Month to date precipitation 2.95  
Year to date precipitation 2.95  
Snow  
Snow 0.00 in - - ()
Month to date snowfall  
Since 1 July snowfall  
Snow Depth -    
Sea Level Pressure  
Sea Level Pressure 30.16 in    
Wind  
Wind Speed 4 mph (NNW)    
Max Wind Speed 14 mph    
Max Gust Speed 17 mph    
Visibility 10 miles    
Events      
T = Trace of Precipitation, MM = Missing Value Source: NWS Daily Summary

Daily Weather History Graph

Daily Weather History Graph

Search for Another Location

Airport or City:

Trip Planner

Search our weather history database for the weather conditions in past years. The results will help you decide how hot, cold, wet, or windy it might be!

Date:

Astronomy

Jan. 21, 2013 Rise Set
Actual Time 6:45 AM CST 5:10 PM CST
Civil Twilight 6:19 AM CST 5:36 PM CST
Nautical Twilight 5:49 AM CST 6:06 PM CST
Astronomical Twilight 5:20 AM CST 6:35 PM CST
Moon 12:51 PM CST (1/21) 2:12 AM CST (1/21)
Length of Visible Light 11h 17m
Length of Day
10h 25m
Waxing Gibbous, 75% of the Moon is Illuminated
Jan 21
Waxing Gibbous
Jan 26
Full
Feb 3
Last Quarter
Feb 10
New
Feb 17
First Quarter

Hourly Weather History & Observations

Time (CST) Temp. Windchill Dew Point Humidity Pressure Visibility Wind Dir Wind Speed Gust Speed Precip Events Conditions
12:56 AM 37.0 °F - 33.1 °F 86% 30.13 in 10.0 mi Calm Calm - N/A   Clear
1:56 AM 36.0 °F - 33.1 °F 89% 30.12 in 10.0 mi Calm Calm - N/A   Clear
2:56 AM 36.0 °F - 33.1 °F 89% 30.11 in 10.0 mi Calm Calm - N/A   Clear
4:56 AM 35.1 °F 32.2 °F 32.0 °F 89% 30.12 in 10.0 mi North 3.5 mph - N/A   Clear
5:56 AM 34.0 °F 28.8 °F 30.9 °F 89% 30.13 in 10.0 mi North 5.8 mph - N/A   Clear
6:56 AM 36.0 °F 33.3 °F 33.1 °F 89% 30.15 in 10.0 mi North 3.5 mph - N/A   Clear
7:56 AM 41.0 °F 38.0 °F 36.0 °F 82% 30.16 in 10.0 mi North 4.6 mph - N/A   Clear
8:56 AM 52.0 °F - 41.0 °F 66% 30.18 in 10.0 mi Calm Calm - N/A   Clear
9:56 AM 57.9 °F - 42.1 °F 56% 30.19 in 10.0 mi Variable 3.5 mph - N/A   Clear
10:56 AM 61.0 °F - 39.0 °F 44% 30.17 in 10.0 mi WNW 5.8 mph - N/A   Clear
11:56 AM 63.0 °F - 39.9 °F 43% 30.14 in 10.0 mi North 11.5 mph 17.3 mph N/A   Clear
12:56 PM 64.0 °F - 39.9 °F 41% 30.12 in 10.0 mi NNW 8.1 mph - N/A   Clear
1:56 PM 64.9 °F - 37.9 °F 37% 30.11 in 10.0 mi North 13.8 mph - N/A   Clear
2:56 PM 64.0 °F - 37.9 °F 38% 30.12 in 10.0 mi NNW 10.4 mph - N/A   Clear
3:56 PM 63.0 °F - 37.0 °F 38% 30.13 in 10.0 mi North 13.8 mph - N/A   Scattered Clouds
4:56 PM 59.0 °F - 37.0 °F 44% 30.15 in 10.0 mi NNW 6.9 mph - N/A   Clear
5:56 PM 55.9 °F - 36.0 °F 47% 30.17 in 10.0 mi NNW 9.2 mph - N/A   Clear
6:56 PM 53.1 °F - 36.0 °F 52% 30.18 in 10.0 mi NNW 5.8 mph - N/A   Clear
7:56 PM 51.1 °F - 35.1 °F 54% 30.19 in 10.0 mi NNW 5.8 mph - N/A   Clear
8:56 PM 48.9 °F - 34.0 °F 56% 30.20 in 10.0 mi NNW 8.1 mph - N/A   Clear
9:56 PM 46.0 °F 43.9 °F 32.0 °F 58% 30.20 in 10.0 mi NNW 4.6 mph - N/A   Clear
10:56 PM 43.0 °F 40.3 °F 32.0 °F 65% 30.20 in 10.0 mi North 4.6 mph - N/A   Clear
11:56 PM 42.1 °F 38.4 °F 30.9 °F 65% 30.20 in 10.0 mi North 5.8 mph - N/A   Clear